World > North America > United States > Nebraska

Merrick County, Nebraska Regional Weather

Lat: 41.13N, Lon: 97.94W
Wx Zone: NEZ048Web Search

Pass this page to a friend. Tell them to point their camera at the QR Code near the bottom of this page.

Feedback


°F Click to change Merrick County hourly weather to Imperial units.Click to change Merrick County hourly weather to Metric units. °C
Merrick County Weather Map
UTC Time: 4/14/2021, 14:27
Your Time:

Merrick County, NE Regional Weather

Expires:202104141500;;541754
ASUS43 KOAX 141410
RWRNE 

WEATHER ROUNDUP FOR NEBRASKA
NATIONAL WEATHER SERVICE OMAHA NE
900 AM CDT WED APR 14 2021

NOTES: SATELLITE DATA IS BEING USED TO AUGMENT CLOUD COVER ABOVE
       12000 FEET.
       "FAIR" INDICATES FEW OR NO CLOUDS BELOW 12,000 FEET WITH NO
       SIGNIFICANT WEATHER AND/OR OBSTRUCTIONS TO VISIBILITY.

   

NEZ041-046>049-061>064-073>077-083>087-141500-
SOUTH CENTRAL NEBRASKA
  
CITY           SKY/WX    TMP DP  RH WIND       PRES   REMARKS
GRAND ISLAND   SUNNY     36  22  56 N12       30.34R WCI  28          
AURORA         SUNNY     36  23  60 NW14      30.33R WCI  27          
HASTINGS       SUNNY     35  23  61 N16       30.33R WCI  25          
HEBRON         SUNNY     37  24  58 N13       30.33R WCI  29          
HOLDREGE       CLOUDY    32  22  64 N13       30.33R WCI  23          
KEARNEY        SUNNY     34  21  59 N14       30.34R WCI  25          
YORK           SUNNY     36  25  64 NW13      30.32R WCI  27          
$$
 

SKY/WX - Weather  TMP - Temperature  DP - Dew Point  RH - Relative Humidity
WIND - Wind Direction/Speed PRES - Barometric Pressure VSB - Visibility
WCI - Wind Chill Index E13G22 Wind - East Wind 13 mph/Gusts of 22 mph